www.pogodaiklimat.ru

Погода и климат >> Архив погоды >> Россия >> Чукотка >> Омолон


АРХИВ ПОГОДЫ в Омолоне

Время (UTC), дата Ветер
(напр.,м/с)
 
Видим.   Явления Облачность Т
(С)
Тd
(С)
f
(%)
Тe
(С)
Тes
(С)
Комфортность P
(гПа)
Po
(гПа)
Тmin
(С)
Tmax
(С)
R
(мм)
R24
(мм)
S
(см)
03 19.04 З 3
{7}
50 км 8/3 600 м
[Cu hum Ac trans Ci fib]
+3.5 -9.5 38 +1 +3 1018.5 986.4
06 19.04 СЗ 4
{8}
50 км 8/3 600 м
[Cu hum Ac trans Ci fib]
+2.2 -9.4 42 -2 -1 1019.6 987.3
09 19.04 СЗ 3
{8}
50 км 5/0
[Ci fib]
-1.9 -10.2 53 -6 -6 1021.8 988.9 +4.1
12 19.04 З 2
{5}
50 км 8/0
[Ci fib]
-5.4 -11.6 62 -9 -9 1023.1 989.7
15 19.04 В 1
{4}
50 км 10/0
[Cs]
-9.3 -13.1 74 -12 -12 1024.0 990.1
18 19.04 штиль 0
{3}
50 км 10/0
[Cs]
-14.8 -16.6 86 -15 -15 1021.2 990.1
21 19.04 В 1
{2}
50 км 10/0
[Ac trans Cs]
-9.8 -14.1 71 -12 -10 1023.5 989.5 -15.1 18
00 20.04 В 1
{3}
50 км 10/8 600 м
[Sc Ac trans Cs]
-4.7 -11.8 58 -7 -6 1019.7 986.6
03 20.04 С 1
{2}
4500 м слаб. снег 10/8 600 м
[Sc As op]
-3.5 -5.5 86 -6 -5 1017.5 984.6
06 20.04 СЗ 3
{5}
15 км слаб. снег 10/8 600 м
[Sc Ac As]
-2.2 -4.3 85 -7 -7 1017.3 984.5
09 20.04 З 3
{7}
50 км {снег} 3/0
[Ac trans]
-4.3 -7.6 78 -10 -10 1019.3 986.3 -2.0 2
12 20.04 СЗ 4
{9}
50 км {снег} 1/0
[Ac trans]
-7.6 -10.3 81 -14 -14 1021.7 988.2
15 20.04 В 1
{6}
50 км ясно -12.7 -13.9 91 -15 -15 1024.2 989.8
18 20.04 штиль 0
{1}
50 км 3/0
[Ac trans]
-18.1 -20.0 85 -18 -18 1026.0 990.9
21 20.04 В 1
{2}
50 км 8/0
[Ac trans Ci fib]
-13.1 -15.8 80 -15 -13 1026.2 991.8 -18.8 20
00 21.04 В 2
{2}
50 км 6/0
[Ac trans Ci fib]
-6.0 -11.9 63 -10 -4 1025.0 991.5
03 21.04 В 2
{4}
50 км 6/0
[Ci fib]
-3.5 -13.0 48 -7 -0 1024.3 991.2
06 21.04 В 1
{3}
50 км 8/0
[Ci fib]
-2.6 -14.3 40 -4 -1 1023.5 990.5
09 21.04 В 3
{5}
50 км 8/0
[Ac trans Ci fib]
-8.9 -17.2 51 -14 -14 1024.6 990.7 -2.4
12 21.04 В 2
{6}
50 км 6/0
[Ac trans Ci fib]
-13.5 -19.4 61 -18 -18 1025.0 990.6
15 21.04 ЮВ 2
{4}
50 км 6/0
[Ac trans Ci fib]
-13.7 -21.0 54 -18 -18 1024.8 990.3
18 21.04 ЮЗ 1
{4}
50 км 4/0
[Ac trans Ci fib]
-18.5 -22.8 69 -21 -21 1024.3 989.3
21 21.04 В 1
{2}
50 км 10/4
[Sc Ac trans Ci fib]
-9.5 -20.9 39 -11 -10 1021.5 988.5 -18.5 20
00 22.04 Ю 1
{2}
50 км 8/3 1000 м
[Sc Ac trans]
-2.6 -15.0 38 -4 -0 1020.2 987.2
03 22.04 В 2
{3}
50 км 5/1 1000 м
[Sc Ac trans Ci fib]
+0.6 -9.6 46 -2 +3 1018.2 985.7
06 22.04 В 2
{4}
50 км 6/0
[Ac trans Ci fib]
+1.8 -5.9 57 -1 +1 1017.1 984.8
09 22.04 В 2
{5}
50 км 10/3 1000 м
[Sc Ac trans Ci fib]
-0.8 -5.0 73 -4 -4 1017.1 984.5 +1.9
12 22.04 В 3
{5}
50 км 10/5 1000 м
[Sc Ac trans Ci fib]
-1.9 -5.7 75 -7 -7 1017.7 985.0
15 22.04 В 4
{7}
50 км 10/5 1000 м
[Sc Ac trans Ci fib]
-3.9 -7.6 75 -10 -10 1017.6 984.6
18 22.04 В 4
{7}
50 км 10/8 1000 м
[Sc Ac trans Ci fib]
-3.5 -6.8 78 -10 -10 1017.6 984.7
21 22.04 ЮВ 3
{7}
50 км 10/8 1000 м
[Sc Ac und]
-0.6 -4.7 74 -5 -5 1017.2 984.6 -3.9 16
00 23.04 ЮВ 5
{9}
50 км 9/8 600 м
[Sc Ac trans]
+0.3 -6.1 62 -5 -5 1016.7 984.3
03 23.04 ЮВ 5
{10}
50 км 9/4 600 м
[Sc Ac trans]
+1.3 -7.5 52 -4 -3 1016.0 983.7
06 23.04 ЮВ 4
{12}
50 км 9/5 600 м
[Sc Ac trans]
+0.4 -7.1 57 -4 -4 1016.1 983.7
09 23.04 ЮВ 3
{9}
50 км 9/3 1000 м
[Sc Ac trans Ci fib]
-1.5 -7.0 66 -6 -6 1016.6 983.9 +1.6
12 23.04 В 3
{6}
50 км 8/0
[Ac trans Ci fib]
-4.3 -7.7 77 -10 -10 1016.9 983.9
15 23.04 В 2
{4}
50 км 5/0
[Ac trans Ci fib]
-7.0 -9.4 83 -11 -11 1017.4 984.0
18 23.04 В 2
{4}
50 км 8/0
[Ac trans Ci fib]
-7.6 -9.8 84 -12 -12 1017.6 984.2
21 23.04 В 2
{4}
7000 м слаб. снег 10/0
[Ac trans Cs]
-2.6 -7.1 71 -6 -4 1016.8 984.0 -8.1 0.0 18
00 24.04 ЮВ 4
{6}
10 км слаб. снег 10/3 600 м
[Sc Ac trans Cs]
-0.0 -6.2 63 -5 -3 1016.2 983.6
03 24.04 ЮВ 3
{7}
50 км {снег} 10/4 600 м
[Sc Ac trans Cs]
+0.2 -5.2 67 -4 -2 1015.3 983.0
06 24.04 ЮВ 3
{7}
50 км {снег} 10/3 1000 м
[Sc Ac trans Ci fib]
+0.5 -5.7 63 -4 -3 1015.0 982.7
09 24.04 В 3
{5}
50 км 10/8 1000 м
[Sc Ac trans Ci fib]
-1.2 -5.8 71 -6 -6 1015.6 983.0 +0.8 0.0
12 24.04 В 2
{5}
50 км 10/8 1080 м
[Sc Ac und]
-2.4 -5.9 77 -6 -6 1015.9 983.2
15 24.04 В 3
{4}
50 км 10/4 1000 м
[Sc Ac trans Ci fib]
-3.2 -6.3 79 -8 -8 1015.7 982.9
18 24.04 В 2
{4}
50 км 10/3 1000 м
[Sc Ac trans Ci fib]
-4.4 -7.0 82 -9 -8 1016.0 983.1
21 24.04 В 3
{4}
50 км 10/8 1000 м
[Sc Ac trans Ci fib]
-2.0 -6.0 74 -7 -7 1015.7 983.0 -4.7 18
00 25.04 ЮВ 4
{7}
50 км 8/4 1000 м
[Sc Ac trans Ci fib]
+1.6 -5.8 58 -3 -1 1014.7 982.5
03 25.04 ЮВ 3
{7}
50 км 10/6 1000 м
[Sc Ac trans Ci fib]
+1.9 -5.3 59 -2 -1 1013.9 981.7
06 25.04 ЮВ 3
{7}
50 км 8/4 1000 м
[Sc Ac trans Ci fib]
+2.1 -4.7 61 -2 -1 1013.2 981.1
09 25.04 ЮВ 3
{7}
50 км 10/6 1000 м
[Sc Ac trans Ci fib]
+0.9 -4.8 66 -3 -3 1013.6 981.3 +2.7
12 25.04 ЮВ 2
{5}
50 км 10/6 1000 м
[Sc Ac trans Ci fib]
-2.8 -7.1 72 -7 -7 1013.8 981.1
15 25.04 В 2
{4}
50 км 10/4 1000 м
[Sc Ac trans Ci fib]
-4.9 -8.7 75 -9 -9 1013.6 980.6
18 25.04 В 2
{5}
50 км 10/4 1000 м
[Sc Ac trans Ci fib]
-5.3 -7.4 85 -10 -9 1012.5 979.5
21 25.04 В 1
{4}
50 км 10/6 1000 м
[Sc Ac trans Ci fib]
-1.8 -5.9 74 -4 -3 1011.0 978.5 -6.0
00 26.04 ЮВ 4
{8}
50 км 10/3 1000 м
[Cu hum Ci fib]
+2.0 -4.9 60 -2 +1 1008.7 976.7

 

Местоположение метеостанции Омолон (Чукотка, Россия): широта 65.23 долгота 160.50 высота над уровнем моря 260 м.

В архиве по умолчанию представлена погода в Омолоне за последнюю неделю. Архивные данные за месяц целиком и за предыдущие месяцы, начиная с января 2011 года, Вы можете получить, выбрав интересующий диапазон дат из раскрывающегося списка и нажав кнопку "Ввод!".


*Определитесь, кто Вы:
робот инопланетянин человек

Внимание! Время в таблицах - всемирное. Для получения местного времени необходимо прибавить поправку, которая равна 12 ч.

Смотрите также архив погоды в соседних городах и на ближайших метеорологических станциях:

Погода в Кегали (Магаданская область, Россия) (112 км)
Погода в Верхне-Пенжино (Камчатский край, Россия) (209 км)
Погода в Баимке (Чукотка, Россия) (222 км)
Погода в Лабазной (Магаданская область, Россия) (235 км)
Погода в Коркодоне (Магаданская область, Россия) (315 км)
Погода в Константиновской (Чукотка, Россия) (326 км)
Погода в Балыгычане (Магаданская область, Россия) (339 км)
Погода в Анюйске (Чукотка, Россия) (350 км)
Погода в Островном (Чукотка, Россия) (358 км)
Погода в Эвенске (Магаданская область, Россия) (374 км)

Пояснения к столбцам:

Ветер - указаны скорость ветра в м/с - средняя за 10 мин, порывы в срок и между сроками (в фигурных скобках) и направление, откуда дует ветер: С - северный, СВ - северо-восточный, В - восточный, ЮВ - юго-восточный, Ю - южный, ЮЗ - юго-западный, З - западный, СЗ - северо-западный.
Видимость - горизонтальная дальность видимости в метрах или километрах. При видимости от 1 до 10 км при отсутствии осадков обычно наблюдается дымка, при ухудшении видимости до 1 км и менее - туман. В сухую погоду видимость может ухудшаться дымом, пылью или мглою.
Явления - указаны атмосферные явления, наблюдавшиеся в срок или в последний час перед сроком; фигурными скобками обозначены явления, наблюдавшиеся между сроками (за 1-3 часа до срока); квадратными скобками обозначены град или гололедные отложения с указанием их диаметра в мм.
Облачность - указаны через наклонную черту общая и нижняя облачность в баллах и высота нижней границы облаков в метрах; квадратными скобками обозначены формы облаков: Ci - перистые, Cs - перисто-слоистые, Cc - перисто-кучевые, Ac - высококучевые, As - высокослоистые, Sc - слоисто-кучевые, Ns - слоисто-дождевые, Cu - кучевые, Cb - кучево-дождевые. Подробнее классификацию облаков см. в Атласе облаков (PDF).
T - Температура воздуха - температура, измеренная на высоте 2 м над землей.
Td - Температура точки росы - температура, при понижении до которой содержащийся в воздухе водяной пар достигнет насыщения.
f - Относительная влажность воздуха - влажноcть воздуха, измеренная на высоте 2 м над землей.
Te - Эффективная температура - температура, которую ощущает одетый по сезону человек в тени. Характеристика душности погоды. При расчете учитывается влияние влажности воздуха и скорости ветра на теплоощущения человека.
Tes - Эффективная температура на солнце - температура, которую ощущает человек, с поправкой на солнечный нагрев. Характеристика знойности погоды. Зависит от высоты солнца над горизонтом, облачности и скорости ветра. Ночью, в пасмурную погоду, а также при ветре 12 м/с и более поправка равна нулю.
P - Атмосферное давление - приведенное к уровню моря атмосферное давление.
Po - Атмосферное давление - измеренное на уровне метеостанции атмосферное давление.
Tmin - Минимальная температура - минимум температуры воздуха на высоте 2 м над землей.
Tmax - Максимальная температура - максимум температуры воздуха на высоте 2 м над землей.
R - Количество осадков - Количество выпавших осадков за период времени, мм. При наведении курсора мыши на число - период времени, за который выпало указанное количество осадков.
R24 - Количество осадков - Количество выпавших осадков за 24 часа, мм.
S - Снежный покров - Высота снежного покрова, см. При наведении курсора мыши на число - состояние снежного покрова и степень покрытия местности в баллах.